Weather History for Beaumont, TX

Change the Weather History Date:

Tuesday, January 24, 2012

  Actual Average Record
Temperature  
Mean Temperature 63 °F 53 °F  
Max Temperature 67 °F 62 °F 83 °F (1909)
Min Temperature 59 °F 43 °F 16 °F (1963)
Degree Days  
Heating Degree Days 2 12  
Month to date heating degree days 149 310  
Since 1 July heating degree days 590 860  
Cooling Degree Days 0 0  
Month to date cooling degree days 44 0  
Year to date cooling degree days 44 0  
Growing Degree Days 12 (Base 50)    
Moisture  
Dew Point 54 °F    
Average Humidity 71    
Maximum Humidity 93    
Minimum Humidity 48    
Precipitation  
Precipitation 0.02 in 0.15 in 4.27 in (1920)
Month to date precipitation 3.53 4.16  
Year to date precipitation 3.53 4.16  
Snow  
Snow 0.00 in 0.00 in T in (2014)
Month to date snowfall 0.0 0.0  
Since 1 July snowfall 0.0 T  
Snow Depth 0.00 in    
Sea Level Pressure  
Sea Level Pressure 30.00 in    
Wind  
Wind Speed 13 mph (East)    
Max Wind Speed 24 mph    
Max Gust Speed 30 mph    
Visibility 7 miles    
Events Rain    
T = Trace of Precipitation, MM = Missing Value Source: NWS Daily Summary

Daily Weather History Graph

Daily Weather History Graph

Search for Another Location

Airport:

Trip Planner

Search our weather history database for the weather conditions in past years. The results will help you decide how hot, cold, wet, or windy it might be!

Date:

Astronomy

Jan. 24, 2012 Rise Set
Actual Time 7:10 AM CST 5:46 PM CST
Civil Twilight 6:44 AM CST 6:11 PM CST
Nautical Twilight 6:15 AM CST 6:40 PM CST
Astronomical Twilight 5:47 AM CST 7:09 PM CST
Moon 7:49 AM CST (1/24) 7:26 PM CST (1/24)
Length of Visible Light 11h 26m
Length of Day
10h 35m
New Moon, 2% of the Moon is Illuminated
Jan 24
New Moon
Jan 30
First Quarter
Feb 7
Full
Feb 14
Last Quarter
Feb 21
New

Hourly Weather History & Observations

Time (CST) Temp. Dew Point Humidity Pressure Visibility Wind Dir Wind Speed Gust Speed Precip Events Conditions
12:53 AM 60.1 °F 44.1 °F 55% 30.03 in 10.0 mi ENE 8.1 mph - N/A   Scattered Clouds
1:53 AM 60.1 °F 44.1 °F 55% 30.03 in 10.0 mi East 8.1 mph - N/A   Clear
2:53 AM 60.1 °F 45.0 °F 57% 30.03 in 10.0 mi ENE 8.1 mph - N/A   Clear
3:53 AM 59.0 °F 44.1 °F 58% 30.02 in 10.0 mi ENE 9.2 mph - N/A   Partly Cloudy
4:53 AM 60.8 °F 42.8 °F 52% 30.02 in 10.0 mi ENE 6.9 mph - N/A   Overcast
5:53 AM 62.1 °F 43.0 °F 50% 30.03 in 10.0 mi East 8.1 mph - N/A   Overcast
6:53 AM 62.1 °F 44.1 °F 52% 30.05 in 10.0 mi ENE 8.1 mph - N/A   Overcast
7:53 AM 60.8 °F 44.6 °F 55% 30.04 in 10.0 mi ENE 9.2 mph - N/A   Overcast
8:53 AM 63.0 °F 45.0 °F 52% 30.06 in 10.0 mi ENE 9.2 mph - N/A   Overcast
9:53 AM 64.0 °F 46.9 °F 54% 30.07 in 10.0 mi East 13.8 mph - N/A   Overcast
10:24 AM 62.6 °F 51.8 °F 68% 30.07 in 10.0 mi ENE 13.8 mph - 0.00 in Rain Light Rain
10:53 AM 63.0 °F 52.0 °F 67% 30.06 in 10.0 mi East 15.0 mph - 0.00 in Rain Light Rain
11:53 AM 62.1 °F 51.1 °F 67% 30.04 in 10.0 mi ENE 13.8 mph - 0.00 in Rain Light Rain
12:53 PM 64.9 °F 54.0 °F 68% 30.01 in 10.0 mi ENE 13.8 mph - 0.00 in   Overcast
1:53 PM 64.9 °F 55.0 °F 70% 29.98 in 10.0 mi East 18.4 mph 23.0 mph N/A   Overcast
2:10 PM 64.4 °F 57.2 °F 77% 29.97 in 10.0 mi East 17.3 mph 25.3 mph N/A   Overcast
2:53 PM 64.4 °F 57.2 °F 77% 29.98 in 10.0 mi East 15.0 mph 23.0 mph N/A   Overcast
3:53 PM 62.1 °F 59.0 °F 90% 29.98 in 3.0 mi East 15.0 mph - 0.01 in Rain Light Rain
4:34 PM 62.6 °F 59.0 °F 88% 29.97 in 4.0 mi East 12.7 mph - N/A   Overcast
4:42 PM 62.6 °F 60.8 °F 94% 29.97 in 1.0 mi East 13.8 mph - 0.00 in Rain Light Rain
4:53 PM 62.1 °F 60.1 °F 93% 29.97 in 1.0 mi East 15.0 mph 23.0 mph 0.00 in   Overcast
5:00 PM 62.6 °F 60.8 °F 94% 29.97 in 3.0 mi East 16.1 mph 23.0 mph N/A   Overcast
5:53 PM 63.0 °F 60.1 °F 90% 29.96 in 3.0 mi East 13.8 mph - N/A   Overcast
6:53 PM 64.0 °F 61.0 °F 90% 29.97 in 5.0 mi East 13.8 mph - N/A   Overcast
7:53 PM 64.9 °F 62.1 °F 90% 29.98 in 4.0 mi East 13.8 mph - N/A   Overcast
8:53 PM 66.0 °F 64.0 °F 93% 29.98 in 5.0 mi East 13.8 mph - N/A   Overcast
9:53 PM 66.0 °F 64.0 °F 93% 29.98 in 3.0 mi East 15.0 mph - 0.00 in   Overcast
10:03 PM 66.2 °F 64.4 °F 94% 29.97 in 2.5 mi East 17.3 mph - N/A   Overcast
10:53 PM 64.9 °F 63.0 °F 93% 29.95 in 2.5 mi East 17.3 mph 26.5 mph 0.01 in   Overcast
11:15 PM 64.4 °F 62.6 °F 94% 29.95 in 3.0 mi ESE 20.7 mph - N/A   Overcast
11:53 PM 66.9 °F 64.0 °F 90% 29.93 in 6.0 mi ESE 21.9 mph 29.9 mph N/A   Overcast